Time,TemperatureF,DewpointF,PressureIn,WindDirection,WindDirectionDegrees,WindSpeedMPH,WindSpeedGustMPH,Humidity,HourlyPrecipIn,Conditions,Clouds,dailyrainin,SolarRadiationWatts/m^2,SoftwareType,DateUTC
2013-03-21 00:02:00,64.0,59.0,-100.00,NNE,15,6.0,9.0,84,0.00,,,0.02,0.000000,,2013-03-21 10:02:00,
2013-03-21 00:12:00,64.0,59.0,-100.00,NNE,15,6.0,9.0,84,0.00,,,0.02,0.000000,,2013-03-21 10:12:00,
2013-03-21 00:22:00,64.0,59.0,-100.00,NNE,15,6.0,9.0,84,0.00,,,0.02,0.000000,,2013-03-21 10:22:00,
2013-03-21 00:32:00,64.0,59.0,-100.00,NNE,15,6.0,9.0,84,0.00,,,0.02,0.000000,,2013-03-21 10:32:00,
2013-03-21 01:02:00,63.0,57.0,-100.00,NNE,13,6.0,10.0,82,0.00,,,0.02,0.000000,,2013-03-21 11:02:00,
2013-03-21 01:12:00,63.0,57.0,-100.00,NNE,13,6.0,10.0,82,0.00,,,0.02,0.000000,,2013-03-21 11:12:00,
2013-03-21 01:22:00,63.0,57.0,-100.00,NNE,13,6.0,10.0,82,0.00,,,0.02,0.000000,,2013-03-21 11:22:00,
2013-03-21 01:32:00,63.0,57.0,-100.00,NNE,13,6.0,10.0,82,0.00,,,0.02,0.000000,,2013-03-21 11:32:00,
2013-03-21 02:02:00,63.0,55.0,-100.00,NNE,20,8.0,11.0,75,0.00,,,0.02,0.000000,,2013-03-21 12:02:00,
2013-03-21 02:12:00,63.0,55.0,-100.00,NNE,20,8.0,11.0,75,0.00,,,0.02,0.000000,,2013-03-21 12:12:00,
2013-03-21 02:22:00,63.0,55.0,-100.00,NNE,20,8.0,11.0,75,0.00,,,0.02,0.000000,,2013-03-21 12:22:00,
2013-03-21 02:32:00,63.0,55.0,-100.00,NNE,20,8.0,11.0,75,0.00,,,0.02,0.000000,,2013-03-21 12:32:00,
2013-03-21 03:02:00,64.0,56.0,-100.00,NNE,18,7.0,11.0,76,0.00,,,0.02,0.000000,,2013-03-21 13:02:00,
2013-03-21 03:12:00,64.0,56.0,-100.00,NNE,18,7.0,11.0,76,0.00,,,0.02,0.000000,,2013-03-21 13:12:00,
2013-03-21 03:22:00,64.0,56.0,-100.00,NNE,18,7.0,11.0,76,0.00,,,0.02,0.000000,,2013-03-21 13:22:00,
2013-03-21 03:32:00,64.0,56.0,-100.00,NNE,18,7.0,11.0,76,0.00,,,0.02,0.000000,,2013-03-21 13:32:00,
2013-03-21 04:02:00,64.0,57.0,-100.00,NNE,15,7.0,11.0,79,0.00,,,0.02,0.000000,,2013-03-21 14:02:00,
2013-03-21 04:12:00,64.0,57.0,-100.00,NNE,15,7.0,11.0,79,0.00,,,0.02,0.000000,,2013-03-21 14:12:00,
2013-03-21 04:21:00,64.0,57.0,-100.00,NNE,15,7.0,11.0,79,0.00,,,0.02,0.000000,,2013-03-21 14:21:00,
2013-03-21 04:32:00,64.0,57.0,-100.00,NNE,15,7.0,11.0,79,0.00,,,0.02,0.000000,,2013-03-21 14:32:00,
2013-03-21 05:03:00,64.0,57.0,-100.00,NNE,23,5.0,9.0,78,0.00,,,0.02,0.000000,,2013-03-21 15:03:00,
2013-03-21 05:12:00,64.0,57.0,-100.00,NNE,23,5.0,9.0,78,0.00,,,0.02,0.000000,,2013-03-21 15:12:00,
2013-03-21 05:22:00,64.0,57.0,-100.00,NNE,23,5.0,9.0,78,0.00,,,0.02,0.000000,,2013-03-21 15:22:00,
2013-03-21 05:32:00,64.0,57.0,-100.00,NNE,23,5.0,9.0,78,0.00,,,0.02,0.000000,,2013-03-21 15:32:00,
2013-03-21 06:03:00,65.0,58.0,-100.00,NNE,24,7.0,11.0,79,0.00,,,0.02,0.000000,,2013-03-21 16:03:00,
2013-03-21 06:12:00,65.0,58.0,-100.00,NNE,24,7.0,11.0,79,0.00,,,0.02,0.000000,,2013-03-21 16:12:00,
2013-03-21 06:22:00,65.0,58.0,-100.00,NNE,24,7.0,11.0,79,0.00,,,0.02,0.000000,,2013-03-21 16:22:00,
2013-03-21 06:32:00,65.0,58.0,-100.00,NNE,24,7.0,11.0,79,0.00,,,0.02,0.000000,,2013-03-21 16:32:00,
2013-03-21 07:02:00,63.0,58.0,-100.00,NNE,16,6.0,10.0,84,0.00,,,0.02,0.000000,,2013-03-21 17:02:00,
2013-03-21 07:12:00,63.0,58.0,-100.00,NNE,16,6.0,10.0,84,0.00,,,0.02,0.000000,,2013-03-21 17:12:00,
2013-03-21 07:23:00,63.0,58.0,-100.00,NNE,16,6.0,10.0,84,0.00,,,0.02,0.000000,,2013-03-21 17:23:00,
2013-03-21 07:32:00,63.0,58.0,-100.00,NNE,16,6.0,10.0,84,0.00,,,0.02,0.000000,,2013-03-21 17:32:00,
2013-03-21 08:02:00,69.0,63.0,-100.00,NNE,25,5.0,9.0,82,0.00,,,0.02,0.000000,,2013-03-21 18:02:00,
2013-03-21 08:12:00,69.0,63.0,-100.00,NNE,25,5.0,9.0,82,0.00,,,0.02,0.000000,,2013-03-21 18:12:00,
2013-03-21 08:22:00,69.0,63.0,-100.00,NNE,25,5.0,9.0,82,0.00,,,0.02,0.000000,,2013-03-21 18:22:00,
2013-03-21 08:32:00,69.0,63.0,-100.00,NNE,25,5.0,9.0,82,0.00,,,0.02,0.000000,,2013-03-21 18:32:00,
2013-03-21 09:02:00,75.0,63.0,-100.00,SW,222,3.0,8.0,66,0.01,,,0.03,79.000000,,2013-03-21 19:02:00,
2013-03-21 09:12:00,75.0,63.0,-100.00,SW,222,3.0,8.0,66,0.01,,,0.03,79.000000,,2013-03-21 19:12:00,
2013-03-21 09:22:00,75.0,63.0,-100.00,SW,222,3.0,8.0,66,0.01,,,0.03,79.000000,,2013-03-21 19:22:00,
2013-03-21 09:31:00,75.0,63.0,-100.00,SW,222,3.0,8.0,66,0.01,,,0.03,79.000000,,2013-03-21 19:31:00,
2013-03-21 10:02:00,76.0,63.0,-100.00,South,187,7.0,14.0,64,0.00,,,0.03,205.000000,,2013-03-21 20:02:00,
2013-03-21 10:12:00,76.0,63.0,-100.00,South,187,7.0,14.0,64,0.00,,,0.03,205.000000,,2013-03-21 20:12:00,
2013-03-21 10:22:00,76.0,63.0,-100.00,South,187,7.0,14.0,64,0.00,,,0.03,205.000000,,2013-03-21 20:22:00,
2013-03-21 10:32:00,76.0,63.0,-100.00,South,187,7.0,14.0,64,0.00,,,0.03,205.000000,,2013-03-21 20:32:00,
2013-03-21 11:02:00,77.0,62.0,-100.00,SSE,159,8.0,20.0,60,0.00,,,0.03,385.000000,,2013-03-21 21:02:00,
2013-03-21 11:12:00,77.0,62.0,-100.00,SSE,159,8.0,20.0,60,0.00,,,0.03,385.000000,,2013-03-21 21:12:00,
2013-03-21 11:22:00,77.0,62.0,-100.00,SSE,159,8.0,20.0,60,0.00,,,0.03,385.000000,,2013-03-21 21:22:00,
2013-03-21 11:32:00,77.0,62.0,-100.00,SSE,159,8.0,20.0,60,0.00,,,0.03,385.000000,,2013-03-21 21:32:00,
2013-03-21 12:02:00,82.0,65.0,-100.00,SSW,198,9.0,18.0,57,0.00,,,0.03,509.000000,,2013-03-21 22:02:00,
2013-03-21 12:12:00,82.0,65.0,-100.00,SSW,198,9.0,18.0,57,0.00,,,0.03,509.000000,,2013-03-21 22:12:00,
2013-03-21 12:23:00,82.0,65.0,-100.00,SSW,198,9.0,18.0,57,0.00,,,0.03,509.000000,,2013-03-21 22:23:00,
2013-03-21 12:33:00,82.0,65.0,-100.00,SSW,198,9.0,18.0,57,0.00,,,0.03,509.000000,,2013-03-21 22:33:00,
2013-03-21 13:02:00,82.0,68.0,-100.00,SSW,208,8.0,21.0,62,0.00,,,0.03,845.000000,,2013-03-21 23:02:00,
2013-03-21 13:12:00,82.0,68.0,-100.00,SSW,208,8.0,21.0,62,0.00,,,0.03,845.000000,,2013-03-21 23:12:00,
2013-03-21 13:21:00,82.0,68.0,-100.00,SSW,208,8.0,21.0,62,0.00,,,0.03,845.000000,,2013-03-21 23:21:00,
2013-03-21 13:32:00,82.0,68.0,-100.00,SSW,208,8.0,21.0,62,0.00,,,0.03,845.000000,,2013-03-21 23:32:00,
2013-03-21 14:02:00,82.0,66.0,-100.00,SSW,205,9.0,18.0,58,0.00,,,0.03,954.000000,,2013-03-22 00:02:00,
2013-03-21 14:12:00,82.0,66.0,-100.00,SSW,205,9.0,18.0,58,0.00,,,0.03,954.000000,,2013-03-22 00:12:00,
2013-03-21 14:22:00,82.0,66.0,-100.00,SSW,205,9.0,18.0,58,0.00,,,0.03,954.000000,,2013-03-22 00:22:00,
2013-03-21 14:31:00,82.0,66.0,-100.00,SSW,205,9.0,18.0,58,0.00,,,0.03,954.000000,,2013-03-22 00:31:00,
2013-03-21 15:02:00,84.0,63.0,-100.00,SSW,193,7.0,19.0,50,0.00,,,0.03,954.000000,,2013-03-22 01:02:00,
2013-03-21 15:12:00,84.0,63.0,-100.00,SSW,193,7.0,19.0,50,0.00,,,0.03,954.000000,,2013-03-22 01:12:00,
2013-03-21 15:22:00,84.0,63.0,-100.00,SSW,193,7.0,19.0,50,0.00,,,0.03,954.000000,,2013-03-22 01:22:00,
2013-03-21 15:32:00,84.0,63.0,-100.00,SSW,193,7.0,19.0,50,0.00,,,0.03,954.000000,,2013-03-22 01:32:00,
2013-03-21 16:02:00,80.0,62.0,-100.00,SW,222,7.0,17.0,54,0.00,,,0.03,1113.000000,,2013-03-22 02:02:00,
2013-03-21 16:12:00,80.0,62.0,-100.00,SW,222,7.0,17.0,54,0.00,,,0.03,1113.000000,,2013-03-22 02:12:00,
2013-03-21 16:22:00,80.0,62.0,-100.00,SW,222,7.0,17.0,54,0.00,,,0.03,1113.000000,,2013-03-22 02:22:00,
2013-03-21 16:32:00,80.0,62.0,-100.00,SW,222,7.0,17.0,54,0.00,,,0.03,1113.000000,,2013-03-22 02:32:00,
2013-03-21 17:02:00,79.0,62.0,-100.00,SSW,196,9.0,17.0,57,0.00,,,0.03,792.000000,,2013-03-22 03:02:00,
2013-03-21 17:12:00,79.0,62.0,-100.00,SSW,196,9.0,17.0,57,0.00,,,0.03,792.000000,,2013-03-22 03:12:00,
2013-03-21 17:21:00,79.0,62.0,-100.00,SSW,196,9.0,17.0,57,0.00,,,0.03,792.000000,,2013-03-22 03:21:00,
2013-03-21 17:33:00,79.0,62.0,-100.00,SSW,196,9.0,17.0,57,0.00,,,0.03,792.000000,,2013-03-22 03:33:00,
2013-03-21 18:03:00,76.0,65.0,-100.00,SW,219,6.0,14.0,70,0.00,,,0.02,505.000000,,2013-03-22 04:03:00,
2013-03-21 18:12:00,76.0,65.0,-100.00,SW,219,6.0,14.0,70,0.00,,,0.02,505.000000,,2013-03-22 04:12:00,
2013-03-21 18:22:00,76.0,65.0,-100.00,SW,219,6.0,14.0,70,0.00,,,0.02,505.000000,,2013-03-22 04:22:00,
2013-03-21 18:32:00,76.0,65.0,-100.00,SW,219,6.0,14.0,70,0.00,,,0.02,505.000000,,2013-03-22 04:32:00,
2013-03-21 19:02:00,74.0,66.0,-100.00,SSW,206,2.0,10.0,75,0.00,,,0.01,218.000000,,2013-03-22 05:02:00,
2013-03-21 19:12:00,74.0,66.0,-100.00,SSW,206,2.0,10.0,75,0.00,,,0.01,218.000000,,2013-03-22 05:12:00,
2013-03-21 19:22:00,74.0,66.0,-100.00,SSW,206,2.0,10.0,75,0.00,,,0.01,218.000000,,2013-03-22 05:22:00,
2013-03-21 19:32:00,74.0,66.0,-100.00,SSW,206,2.0,10.0,75,0.00,,,0.01,218.000000,,2013-03-22 05:32:00,
2013-03-21 20:02:00,72.0,60.0,-100.00,West,260,4.0,12.0,66,0.00,,,0.01,65.000000,,2013-03-22 06:02:00,
2013-03-21 20:12:00,72.0,60.0,-100.00,West,260,4.0,12.0,66,0.00,,,0.01,65.000000,,2013-03-22 06:12:00,
2013-03-21 20:22:00,72.0,60.0,-100.00,West,260,4.0,12.0,66,0.00,,,0.01,65.000000,,2013-03-22 06:22:00,
2013-03-21 20:32:00,72.0,60.0,-100.00,West,260,4.0,12.0,66,0.00,,,0.01,65.000000,,2013-03-22 06:32:00,
2013-03-21 21:02:00,73.0,64.0,-100.00,SSW,210,5.0,13.0,73,0.00,,,0.01,0.000000,,2013-03-22 07:02:00,
2013-03-21 21:12:00,73.0,64.0,-100.00,SSW,210,5.0,13.0,73,0.00,,,0.01,0.000000,,2013-03-22 07:12:00,
2013-03-21 21:22:00,73.0,64.0,-100.00,SSW,210,5.0,13.0,73,0.00,,,0.01,0.000000,,2013-03-22 07:22:00,
2013-03-21 21:32:00,73.0,64.0,-100.00,SSW,210,5.0,13.0,73,0.00,,,0.01,0.000000,,2013-03-22 07:32:00,
2013-03-21 22:02:00,71.0,64.0,-100.00,SE,125,2.0,15.0,78,0.00,,,0.01,0.000000,,2013-03-22 08:02:00,
2013-03-21 22:12:00,71.0,64.0,-100.00,SE,125,2.0,15.0,78,0.00,,,0.01,0.000000,,2013-03-22 08:12:00,
2013-03-21 22:22:00,71.0,64.0,-100.00,SE,125,2.0,15.0,78,0.00,,,0.01,0.000000,,2013-03-22 08:22:00,
2013-03-21 22:32:00,71.0,64.0,-100.00,SE,125,2.0,15.0,78,0.00,,,0.01,0.000000,,2013-03-22 08:32:00,
2013-03-21 23:02:00,72.0,65.0,-100.00,SSE,154,4.0,8.0,80,0.01,,,0.02,0.000000,,2013-03-22 09:02:00,
2013-03-21 23:12:00,72.0,65.0,-100.00,SSE,154,4.0,8.0,80,0.01,,,0.02,0.000000,,2013-03-22 09:12:00,
2013-03-21 23:22:00,72.0,65.0,-100.00,SSE,154,4.0,8.0,80,0.01,,,0.02,0.000000,,2013-03-22 09:22:00,
2013-03-21 23:32:00,72.0,65.0,-100.00,SSE,154,4.0,8.0,80,0.01,,,0.02,0.000000,,2013-03-22 09:32:00,